Showing default

ESSA 6 (TOS-D), 3035

Orbit data source: Space-Track

ESSA 6 (TOS-D), 3035 is a payload satellite owned by ESSA (US) in SSO that was launched on Fri, 10 Nov 1967 UTC via a THOR DELTA E1 launch vehicle from the Air Force Western Test Range (AFWTR). Payloads include a variety of satellites, spacecraft, and rockets equipped with specific instruments for various scientific and technological missions. These include communications satellites like Starlink; space stations such as the ISS; scientific satellites like the Hubble; Earth observation satellites from companies like Planet Labs, Umbra, and HawkEye 360; GPS; miniature CubeSats for education and research; and military/defense satellites.

Loading next visibility...
ESSA 6 (TOS-D) details
Identifier
3035, 1967-114A
Orbit
SSO
Last TLE update10 hours ago
Origin
Flag of USESSA (US)
ManufacturerRCA/East Windsor
MissionNon-operational Civil Weather
Bus & MotorTIROS I, Unknown motor
Mass135 kg wet, 135 kg dry
Launch date (UTC)
1967-11-10 (57 years ago)
Launch vehicle
THOR DELTA E1
Launch site
Air Force Western Test Range (AFWTR)
Object type
Payload
Rocket body
Debris
Shape & HBRCyl, 1.1 m
Radar Cross Section0.994 m², Medium (>0.1 m² and < 1m²)

Expand to show TLE details & history

TLE from 10 hours ago
0 ESSA 6 (TOS-D)
1  3035U 67114A   24356.17097594 -.00000033  00000-0  82876-4 0  9994
2  3035 102.0172  83.0557 0048953  80.2749 313.1861 12.54239591614963
Epoch: 2024-12-21T04:06Z
Definitive object data (Epoch: 2024-12-21T04:06:12.321Z)
Latitude32.2951°
Longitude-76.41555°
Altitude1,424.557 km
Speed7.163 km/s
True Right ascension05h 01m 26s
True Declination32° 09' 12"
Sunlit
Object was in full shadow at TLE epoch
Visualization TLE readout
Latitude76.56373°
Longitude-130.75922°
Altitude1,421.468 km
Speed7.174 km/s
Apparent Right ascension01h 05m 29s
Apparent Declination27° 30' 39"
Sunlit
Object is in daylight
Visualization observer readout
Local Sidereal Time12:58:35
Azimuth358.346° N
Elevation-22.554°
Doppler factor1
Orbital elements
Apogee altitude1,482.662 km
Perigee altitude1,406.075 km
Semi-major axis7,822.506 km
Eccentricity0.0048953
Inclination102.0172°
RAAN83.0557°
Arg. of periapsis80.2749°
True anomaly312.77537°
Mean anomaly313.1861°
Eccentric anomaly312.98091°
Mean motion3.13707 °/min
BSTAR0.000082876
Orbital period114.76 mins
Loading maneuver chart data...
Loading historical data...
Loading historical data...
Loading historical data...
Loading historical data...
Loading historical data...
Loading historical data...
Loading historical data...
Other satellites on launch #114 in the year 1967 (1967-11-10 UTC)

ESSA 6 (TOS-D) Visibility forecast

Observer location: undefined°, undefined

Span
Click to sort rows by Start time (UTC) header in descending order
Start Az.
Max El. time (UTC)
Max El. Az.
Max El.
End time (UTC)
End Az.
14 mins2024-12-21 17:57:33.084Z35.178° NE2024-12-21 18:04:33.084Z95.893° ESE30.066°2024-12-21 18:11:33.084Z160.189° S
13 mins2024-12-21 19:51:33.084Z3.363° NNE2024-12-21 19:57:33.084Z296.251° NW37.773°2024-12-21 20:04:33.084Z226.044° WSW
14 mins2024-12-22 04:56:33.084Z130.711° SE2024-12-22 05:02:33.084Z73.051° E36.625°2024-12-22 05:10:33.084Z352.98° N
13 mins2024-12-22 06:49:33.084Z200.502° SSW2024-12-22 06:55:33.084Z257.448° W30.973°2024-12-22 07:02:33.084Z323.924° NNW
|